Location: Newark
(54.6833°N, 25.2833°E)
Time: 04:07:33
(UTC+00:00)

N. Korean satellite - Visible Passes

Search period start: 20 October 2019 00:00
Search period end: 30 October 2019 00:00
Orbit: 455 x 508 km, 97.2° (Epoch: 19 October)

Date Brightness Start Highest point End Pass type
(mag) Time Alt. Az. Time Alt. Az. Time Alt. Az.
20 Oct 10.1 03:13:34 10° NE 03:15:38 14° E 03:17:43 10° ESE visible
21 Oct 7.0 04:20:32 10° NNE 04:24:08 68° ESE 04:27:45 10° S visible
21 Oct 10.3 16:38:33 10° WSW 16:39:55 12° W 16:41:19 10° WNW visible
22 Oct 8.4 03:55:22 10° NNE 03:58:45 36° E 04:02:09 10° SSE visible
22 Oct 9.6 16:11:41 10° SW 16:14:21 21° W 16:17:03 10° NW visible
23 Oct 9.5 03:30:27 10° NE 03:33:17 21° E 03:36:08 10° SE visible
23 Oct 8.3 15:45:39 10° SSW 15:48:51 37° W 15:52:09 10° NNW visible
24 Oct 10.3 03:06:05 10° ENE 03:07:43 13° E 03:09:21 10° ESE visible
25 Oct 7.4 04:12:40 10° NNE 04:16:17 56° E 04:19:54 10° S visible
25 Oct 10.0 16:30:01 10° WSW 16:31:58 14° W 16:33:57 10° NW visible
26 Oct 8.8 03:47:33 10° NNE 03:50:52 31° E 03:54:11 10° SSE visible
26 Oct 9.2 16:03:30 10° SSW 16:06:25 25° W 16:09:22 10° NW visible
27 Oct 9.8 03:22:44 10° NE 03:25:21 18° E 03:27:59 10° SE visible
27 Oct 7.9 15:37:35 10° S 15:40:56 44° W 15:44:21 10° NNW visible
28 Oct 10.5 02:58:51 10° ENE 02:59:45 11° E 03:00:40 10° E visible
28 Oct 6.7 04:30:03 10° NNE 04:33:45 87° ESE 04:37:27 10° SSW visible
29 Oct 7.8 04:04:48 10° NNE 04:08:22 47° E 04:11:58 10° S visible
29 Oct 9.9 16:21:36 10° SW 16:23:58 17° W 16:26:23 10° NW visible
